Wind_Speed
18 20 23 25 28 28 29 31 32 33 33 33 33 32 31 32 32 31 30 30 29 28 26 25 25 25 25 24 24 25 26 27 27 27 26 25 24 23 22 22 22 22 22 23 24 25 26 27 28 28 29 29 30 31 32 33 34 34 34 33 33 32 31 31 32 33 33 32 32 33 32 33 34 34 35 35 35 36 36 37 37 37 38 38 38
20 22 24 26 28 28 29 30 31 32 32 31 31 30 30 31 31 30 30 30 29 28 27 26 25 25 25 25 25 27 28 29 29 28 27 27 26 24 23 23 23 23 23 24 25 26 27 28 28 29 30 30 31 32 33 34 34 34 34 33 32 32 31 31 32 33 34 34 34 34 33 33 34 35 36 35 36 36 37 37 37 37 38 38 38
21 21 22 25 26 28 28 28 29 29 30 30 29 30 30 30 30 30 30 30 29 28 27 26 26 26 27 27 28 30 30 30 30 30 29 28 27 26 25 25 24 24 25 26 26 27 28 28 29 30 31 31 31 32 33 34 34 34 33 33 32 32 32 32 33 34 34 35 36 36 35 35 35 35 36 35 36 37 37 37 38 38 38 38 39
19 19 20 22 24 26 27 26 26 27 27 27 27 28 28 28 28 29 29 29 29 29 28 28 28 28 29 30 31 32 32 32 32 32 31 29 28 27 27 26 26 26 27 27 27 27 28 29 30 31 31 32 32 33 33 34 34 34 33 33 33 33 33 33 34 35 35 36 37 38 37 37 36 36 36 36 36 37 37 37 38 38 38 39 39
16 17 18 20 21 22 23 24 25 26 25 25 25 25 26 26 27 28 28 29 30 30 30 30 31 31 32 33 34 35 34 33 33 32 31 30 29 28 28 27 28 28 28 28 28 28 28 29 30 31 32 33 34 34 34 34 34 34 33 33 33 33 34 34 35 35 36 37 38 38 38 38 37 36 36 36 36 37 38 38 38 38 38 39 39
14 16 17 18 19 20 22 23 24 25 24 23 24 25 25 26 27 28 28 29 30 31 31 32 33 33 34 34 34 34 33 32 31 30 30 29 29 29 29 29 29 29 29 29 28 29 29 30 31 32 33 34 35 35 35 35 34 34 34 34 34 34 35 35 36 36 38 38 38 38 39 39 38 37 36 36 36 37 37 37 38 38 38 39 39
15 16 17 19 20 21 21 22 23 23 22 23 24 26 26 27 27 28 28 29 31 32 33 34 34 35 35 34 34 33 33 32 31 31 31 32 32 32 31 30 30 30 30 30 30 30 31 31 32 33 34 35 36 37 36 35 35 35 35 35 35 36 36 36 37 38 38 39 39 39 39 38 38 38 37 36 36 36 36 36 38 38 38 38 39
18 18 18 19 20 21 20 20 21 21 22 23 25 26 26 26 27 27 28 29 31 33 34 35 35 35 35 34 34 33 33 32 33 33 34 34 34 33 32 32 32 32 32 32 32 32 32 33 34 34 35 36 37 37 36 36 35 35 35 36 37 37 37 37 38 38 39 39 39 39 39 38 38 38 37 37 36 35 34 34 36 37 37 38 38
21 20 19 19 20 20 19 19 19 20 22 25 25 25 26 27 28 29 30 30 31 33 35 35 35 35 35 35 34 34 34 34 35 36 36 36 35 34 34 34 34 34 34 34 33 33 33 34 35 35 36 37 38 38 37 36 36 36 36 37 37 38 38 38 38 39 39 39 39 39 39 38 38 38 37 37 36 36 34 32 33 34 36 37 38
21 20 19 20 21 20 20 21 21 21 22 24 25 26 27 29 29 30 30 31 31 33 34 35 36 36 36 36 35 35 36 36 37 38 37 37 36 36 37 36 36 36 35 34 34 34 34 35 36 37 37 38 39 38 37 37 37 37 38 39 39 39 39 39 39 39 39 39 38 38 38 38 38 37 37 37 36 37 36 34 32 32 33 35 36
20 20 20 20 21 22 22 24 23 22 23 25 26 27 27 28 29 29 30 31 32 33 34 35 36 36 36 35 35 36 37 38 39 39 38 38 37 37 38 38 38 37 35 35 34 35 36 37 37 38 39 40 39 38 37 37 37 38 40 40 40 40 40 40 40 40 39 39 38 38 38 38 38 37 37 37 37 37 37 37 34 34 34 33 34
20 20 21 21 21 23 24 24 23 23 24 25 25 26 27 28 28 29 29 30 31 32 33 34 35 35 35 35 36 37 38 39 39 39 39 38 38 38 40 40 38 37 36 35 35 36 37 38 39 40 41 41 40 39 38 38 38 39 40 41 41 41 41 41 41 40 39 39 38 38 38 38 38 37 37 37 37 37 37 38 37 37 37 35 34
22 22 21 22 22 23 24 24 24 25 25 25 25 26 27 28 29 30 30 30 30 31 32 34 35 35 35 35 36 37 39 40 40 40 40 40 39 40 41 40 39 38 37 36 36 37 38 39 40 41 42 42 41 40 39 39 39 40 41 41 41 41 42 42 41 40 39 39 38 38 38 37 37 37 36 36 37 37 37 38 37 38 38 38 37
23 22 22 23 24 25 25 25 25 26 26 26 27 27 28 29 30 31 31 31 32 32 33 34 35 35 35 36 37 38 40 41 41 42 41 41 41 41 42 42 41 39 38 38 38 39 40 40 41 42 43 43 42 41 40 40 40 41 41 42 42 42 42 42 42 41 40 39 38 38 37 37 36 36 36 36 36 36 37 37 38 38 39 39 38
20 21 21 23 25 26 26 27 28 28 28 28 28 29 29 29 29 30 31 32 33 33 34 35 36 36 37 37 38 39 41 42 43 43 42 42 42 43 43 43 42 40 39 39 39 40 41 41 41 42 43 44 43 42 41 40 41 41 42 42 42 43 43 43 42 41 40 39 38 38 37 36 36 36 36 35 36 36 37 38 38 39 39 39 39
18 18 20 24 27 28 29 29 29 30 30 30 30 30 30 29 28 28 29 31 33 34 35 35 36 37 38 39 40 41 42 43 44 44 44 44 44 44 44 44 43 41 40 40 40 41 42 41 42 43 44 44 44 43 42 41 41 41 42 42 43 43 43 43 42 41 39 39 38 37 37 36 36 36 36 36 36 37 37 37 38 39 40 40 40
16 17 20 26 30 32 33 32 30 30 31 32 31 30 30 29 29 28 29 30 32 33 34 35 36 37 38 40 41 43 44 44 45 45 45 45 46 45 45 44 43 42 41 41 42 42 42 42 42 43 44 44 44 44 42 41 41 41 42 42 43 43 43 42 41 40 39 38 38 37 36 35 35 35 35 36 36 36 37 37 38 38 39 40 40
16 17 20 26 31 34 35 33 31 31 32 33 33 31 30 30 30 30 30 31 31 32 34 36 37 38 38 39 41 43 45 46 46 46 46 47 47 47 46 45 44 43 42 42 42 43 43 42 43 43 44 45 45 45 43 42 42 42 42 42 42 42 42 42 41 40 39 38 37 36 36 35 35 35 35 36 36 36 37 37 37 38 38 39 40
16 17 21 27 32 34 33 31 31 31 31 33 34 34 33 32 32 32 32 32 32 33 34 36 37 38 39 40 41 43 45 47 48 48 48 48 48 47 47 46 44 44 43 43 43 44 43 43 43 43 44 45 46 45 44 43 43 42 42 42 42 42 42 41 40 39 38 38 37 36 35 35 35 35 35 35 36 36 36 36 37 37 37 38 38
18 19 23 29 33 33 31 29 29 30 31 32 34 36 36 35 35 34 34 34 33 34 34 35 36 38 39 41 42 44 45 47 49 49 49 49 49 48 47 46 45 44 44 44 44 44 44 43 43 44 44 45 46 45 45 44 43 43 42 42 42 41 41 40 39 39 38 37 37 36 35 34 35 35 35 35 35 35 35 36 36 36 36 37 37
23 23 26 30 30 31 30 29 29 29 30 30 31 34 36 36 37 36 36 36 35 35 35 35 36 38 39 40 42 44 45 47 48 49 49 49 49 48 47 46 45 45 44 45 45 45 44 44 44 44 45 46 46 46 45 45 44 43 43 42 42 41 40 39 39 38 38 37 36 35 34 34 34 34 34 34 34 34 34 34 34 34 35 35 36
23 24 26 28 29 31 30 29 28 27 27 27 28 30 33 35 36 37 37 38 37 37 36 36 37 38 39 40 41 43 45 46 47 48 49 49 48 47 46 45 45 45 45 45 46 45 44 44 44 45 46 46 46 46 46 45 44 43 43 42 41 40 39 39 38 38 37 36 36 35 34 33 33 33 33 32 32 32 33 33 33 33 33 34 35
25 25 26 26 25 26 25 24 23 22 23 23 24 26 28 31 33 35 37 38 39 39 39 38 38 39 39 40 41 42 44 45 46 47 48 48 47 46 45 45 45 45 46 46 46 45 44 44 45 46 47 47 46 46 46 45 44 43 43 42 41 40 39 38 37 37 36 36 35 34 33 33 33 32 31 30 31 31 31 31 31 32 33 34 35
29 30 29 27 23 21 19 19 19 19 20 20 21 22 24 26 29 31 34 36 38 40 41 41 40 39 39 40 41 42 43 45 46 46 47 47 47 46 45 45 45 46 46 46 46 45 44 45 45 47 47 47 47 47 46 45 44 43 42 41 40 39 38 37 37 36 36 35 35 33 33 32 32 31 30 29 30 30 30 31 31 32 33 34 35
32 32 31 29 28 26 24 23 22 21 20 19 20 21 23 25 28 30 32 34 36 38 40 40 40 40 40 39 40 41 43 44 45 46 47 47 46 45 44 45 45 46 47 46 46 45 45 45 46 47 47 47 47 47 46 45 44 42 41 40 40 39 38 37 37 36 35 35 34 33 31 31 31 30 29 29 29 30 30 31 31 32 33 35 36
31 30 28 27 27 27 27 27 26 25 24 23 22 21 23 25 27 29 31 33 34 36 37 39 40 40 40 39 39 40 42 44 45 46 47 46 45 44 44 45 46 47 47 47 47 46 46 47 47 47 48 48 47 47 46 44 43 42 41 40 39 38 38 37 37 36 35 35 33 32 31 30 30 29 29 29 30 30 31 32 32 33 34 36 38
24 25 25 25 25 25 27 27 27 28 28 27 27 25 25 26 28 29 30 31 32 32 34 36 38 40 40 40 39 39 41 44 46 47 47 46 45 44 44 45 47 48 48 48 47 47 47 47 48 48 48 48 47 46 45 44 42 41 40 39 39 38 38 37 37 36 35 34 32 31 30 30 29 29 29 30 30 31 32 33 33 34 36 37 39
22 23 24 25 26 27 29 29 31 32 32 32 32 31 30 30 31 31 31 31 31 32 33 34 36 38 40 40 38 38 40 45 47 49 48 47 46 44 45 46 48 49 49 49 48 47 48 48 48 48 48 47 46 45 44 43 42 41 39 38 38 38 38 37 36 36 34 33 31 30 30 30 30 30 30 31 31 32 33 33 34 35 37 39 40
24 25 26 27 28 30 31 32 34 35 35 36 35 34 33 33 33 33 33 33 33 34 35 35 36 37 38 39 39 38 40 44 49 51 50 49 46 45 45 47 49 50 50 49 48 48 48 48 48 48 48 47 45 44 43 42 41 40 39 38 38 38 38 37 35 35 33 32 31 30 30 30 30 31 31 31 32 33 34 35 36 37 39 40 41
26 27 27 28 29 30 31 33 34 34 35 36 36 35 34 33 33 34 33 34 34 35 36 36 37 38 39 39 40 40 40 42 48 52 52 50 48 47 47 48 50 51 50 49 49 49 49 48 47 48 47 46 44 43 42 41 40 40 39 39 39 38 37 36 35 34 33 32 31 31 31 31 31 31 32 32 33 34 35 36 37 39 40 41 42
29 29 29 30 30 30 30 31 31 32 34 35 36 36 36 35 35 34 35 35 36 37 37 37 38 39 40 40 41 41 41 41 44 49 52 51 49 48 48 49 50 51 50 49 49 49 49 48 47 47 46 44 42 41 41 40 40 40 39 39 39 38 37 36 35 34 32 31 31 31 31 31 32 32 32 33 34 35 36 38 39 40 41 42 43
33 33 33 33 33 32 32 32 32 33 34 36 38 39 39 39 39 39 40 40 41 41 42 42 42 41 40 41 40 40 41 42 42 45 49 51 50 50 50 50 50 50 49 49 49 48 48 47 47 46 44 42 40 40 40 40 40 40 40 39 39 38 37 36 35 33 32 31 31 31 31 32 32 33 33 34 35 36 38 39 41 42 43 43 44
37 36 36 36 36 36 36 36 36 37 37 38 40 42 42 42 43 44 45 45 46 46 46 45 43 41 40 40 40 40 40 42 42 42 45 49 51 51 50 49 49 49 48 48 47 48 48 47 46 44 42 40 39 39 39 40 40 40 39 39 39 38 38 36 35 33 31 31 31 31 32 32 33 33 34 35 36 37 39 41 42 43 44 44 44
40 39 39 38 38 38 37 38 38 39 40 41 42 44 44 45 45 46 46 46 46 45 44 42 41 40 39 39 40 41 40 41 42 43 45 48 49 49 48 47 47 47 46 47 47 47 46 45 44 42 40 39 39 39 39 39 40 39 39 39 40 39 37 36 34 33 32 31 32 32 33 33 34 35 35 36 37 39 40 42 43 45 45 45 45
44 43 43 42 41 41 40 40 40 41 42 42 43 44 45 46 46 47 47 47 46 44 42 41 40 39 39 39 39 40 41 41 42 42 44 45 45 45 45 45 45 45 46 47 47 46 45 43 41 40 39 39 38 38 39 39 39 39 38 39 40 39 38 35 34 33 32 33 33 34 35 35 35 35 36 37 38 40 41 43 44 45 46 46 46
46 46 46 45 45 45 44 44 44 43 44 44 45 45 46 46 46 47 47 47 48 47 45 42 40 40 39 38 38 38 39 39 39 40 41 41 42 42 42 42 43 44 45 46 45 44 43 41 39 38 38 37 37 38 39 39 39 38 38 39 40 39 38 36 35 34 33 34 34 35 35 35 36 36 36 37 38 40 43 44 45 46 46 46 47
45 45 45 46 46 46 46 47 46 46 46 46 46 46 47 47 47 47 47 46 46 47 46 43 40 39 39 37 35 35 36 36 37 38 38 39 40 40 41 42 43 44 45 45 44 43 41 39 39 38 37 37 37 38 39 39 39 38 38 39 39 39 38 38 36 35 35 35 35 36 36 37 38 38 37 38 40 42 44 45 46 46 46 47 47
45 45 46 45 46 46 46 46 47 47 46 46 47 48 48 48 47 47 47 46 45 44 44 42 39 37 37 35 33 33 34 35 36 37 38 38 39 40 41 42 43 44 44 44 43 42 40 39 37 36 36 36 37 37 39 39 38 38 39 40 40 39 39 39 37 37 37 37 37 37 38 39 39 39 39 40 41 42 44 46 47 47 48 49 47
45 45 46 45 45 46 45 45 46 46 46 46 47 47 48 48 47 47 47 46 45 42 40 38 37 36 35 33 32 33 34 36 37 37 37 38 39 40 41 42 43 44 44 43 41 40 38 37 35 35 36 36 36 37 38 38 38 38 39 40 40 41 40 39 38 38 38 38 38 38 39 40 40 40 41 42 42 43 45 46 46 48 50 49 47
46 45 44 44 44 44 45 45 45 45 45 46 46 46 46 46 46 46 46 45 43 40 37 36 35 33 32 31 31 33 35 36 37 37 38 38 39 40 41 42 43 43 43 41 40 38 37 35 35 35 36 36 36 36 37 38 39 39 39 41 41 42 41 39 38 39 40 40 39 40 40 40 41 42 43 43 43 43 44 45 47 49 50 48 46
46 45 44 44 43 42 43 43 43 44 44 44 45 45 44 43 43 44 44 42 40 38 36 34 33 30 29 30 32 34 35 36 36 37 38 38 39 40 41 42 43 42 41 40 38 37 36 35 34 35 36 35 35 35 36 38 39 39 40 41 42 42 41 40 40 40 41 41 41 41 41 41 42 42 43 43 43 43 44 46 48 50 49 48 47
45 44 43 43 43 42 42 42 42 42 42 42 42 42 41 40 39 39 38 37 36 35 34 32 29 28 28 30 32 34 34 35 36 37 37 38 39 40 41 42 42 41 40 38 37 36 35 34 34 35 35 34 34 35 36 37 39 40 40 41 42 42 41 41 42 42 42 42 42 42 42 42 42 42 42 42 43 43 45 47 48 48 48 48 49
45 44 42 43 43 42 42 41 41 40 40 39 39 37 35 34 33 33 33 33 32 32 30 28 26 27 28 30 32 33 34 35 35 36 37 38 39 41 42 42 41 40 38 36 35 34 34 34 34 34 34 34 34 35 36 37 38 40 40 41 41 41 41 42 43 44 43 43 43 43 43 42 42 43 42 43 43 44 45 47 47 47 48 48 49
45 44 43 42 42 42 41 40 39 38 37 36 35 33 31 30 30 31 31 31 30 28 26 25 25 26 28 30 31 32 33 34 35 36 38 39 40 41 41 41 39 38 36 35 34 33 33 33 33 33 33 33 34 36 37 37 38 38 40 40 41 41 42 43 44 45 45 44 44 44 44 44 45 44 44 44 44 45 46 47 47 48 48 48 48
44 43 42 42 41 41 41 39 38 36 35 33 31 30 29 28 29 30 30 29 27 25 24 24 25 27 28 30 31 32 33 34 35 37 39 40 40 41 40 39 37 35 34 34 33 33 33 33 33 32 32 33 35 37 37 37 37 38 39 40 40 41 41 43 44 45 45 45 45 46 47 47 47 47 46 46 46 46 46 47 47 47 47 47 46
43 42 41 41 40 40 39 38 36 34 33 31 30 29 28 28 27 26 26 26 26 25 24 25 26 27 29 30 32 33 34 35 37 38 39 40 40 39 38 36 34 33 33 33 33 33 33 33 32 32 32 33 35 37 36 36 37 38 39 39 40 40 41 42 43 44 44 45 46 47 48 49 49 48 48 48 48 47 47 47 47 46 45 44 44
42 41 40 40 40 39 38 37 35 33 32 30 29 28 28 27 26 25 24 24 24 24 24 25 27 28 29 31 32 33 34 36 38 39 39 39 38 36 35 33 31 31 32 32 32 33 32 32 31 31 32 33 35 35 35 36 37 39 39 39 39 40 40 41 42 43 44 45 46 48 49 49 49 49 49 49 49 48 48 46 45 44 44 44 44
40 40 39 39 38 38 37 36 35 33 31 30 29 29 28 27 27 26 25 25 25 25 25 27 28 29 30 31 33 34 35 37 37 37 37 36 35 33 32 31 30 30 32 32 32 32 31 30 31 32 33 34 34 34 34 35 38 39 39 38 38 39 40 41 42 43 44 46 47 49 49 49 49 49 50 49 49 47 46 45 44 44 44 44 45
38 38 37 37 36 36 36 35 34 33 32 30 28 28 28 28 28 27 27 27 26 26 27 28 28 30 31 32 34 35 35 35 35 35 34 33 32 31 30 29 29 30 31 31 31 30 29 30 31 32 33 34 33 33 34 36 38 38 37 37 38 39 39 41 41 42 44 46 48 48 49 49 50 50 49 48 46 45 45 45 45 44 44 44 45
37 36 35 34 34 34 34 34 33 32 31 30 28 27 27 27 27 27 27 27 28 28 28 29 29 30 31 32 33 34 34 33 32 32 31 30 29 28 28 27 27 28 29 30 29 28 28 30 31 32 32 33 33 32 34 36 36 36 36 37 38 39 40 41 42 43 45 47 48 49 49 48 47 47 46 45 44 44 45 45 44 44 44 44 44
35 34 33 33 32 32 32 32 32 31 30 29 27 27 26 26 26 26 27 27 28 28 28 29 30 30 31 31 32 32 31 31 30 29 28 27 26 26 26 26 26 27 28 29 28 27 27 29 31 31 32 33 34 34 34 35 34 35 36 37 38 40 41 41 42 43 45 47 48 47 47 45 44 43 44 44 44 44 44 44 44 44 43 43 42
Wind_Direction
254 253 252 252 252 252 252 253 254 257 259 260 259 258 255 251 250 249 248 248 247 245 245 247 250 253 255 254 253 250 247 246 247 248 249 250 250 250 251 256 262 268 274 278 280 283 286 288 290 290 291 291 291 292 293 293 294 293 291 290 288 287 285 284 283 282 282 281 281 280 280 281 281 281 280 280 280 279 278 278 277 276 276 275 275
252 249 247 249 252 253 253 253 255 257 260 261 262 261 257 253 250 248 246 245 246 246 246 248 250 254 255 252 249 246 245 246 248 250 251 250 248 248 250 254 259 266 273 277 280 284 286 289 291 292 293 293 293 294 295 295 294 292 291 289 287 286 285 284 283 283 283 282 282 281 281 282 281 281 280 280 280 279 278 278 277 276 275 275 274
253 252 251 252 254 255 256 257 258 260 260 260 260 257 253 251 249 246 245 244 245 246 247 248 250 253 253 250 247 246 246 248 249 251 251 250 248 248 250 254 259 265 271 275 279 283 286 289 291 293 294 294 295 295 296 295 293 291 289 287 286 285 284 284 284 284 284 284 284 283 283 283 282 282 282 281 280 279 278 278 277 277 276 275 275
257 258 257 257 257 258 261 263 264 263 262 260 258 256 254 253 251 249 247 245 245 245 246 248 250 251 249 247 245 246 247 249 251 253 253 251 250 251 252 255 260 266 271 276 280 283 286 289 291 293 294 294 295 296 296 294 292 290 288 286 285 284 284 284 284 284 285 286 286 286 285 284 283 283 283 282 281 280 279 279 278 278 277 276 276
260 261 261 262 262 264 267 268 266 265 264 264 262 260 257 255 253 251 249 247 245 245 245 247 249 250 248 246 246 247 249 252 255 258 257 254 252 253 254 257 261 267 273 277 280 282 285 288 290 292 293 295 296 298 297 295 292 290 287 285 284 284 284 283 284 285 285 285 286 286 286 285 284 283 282 282 281 281 280 280 279 279 278 278 277
262 263 262 263 264 266 268 267 267 268 269 270 267 263 259 255 252 250 248 246 245 245 245 247 249 250 250 249 250 253 254 257 260 260 257 254 253 253 255 259 264 269 274 277 279 281 284 288 291 293 295 296 298 299 298 295 292 289 287 285 284 283 283 283 284 285 285 285 286 285 285 284 284 283 282 281 281 281 281 281 280 280 280 279 279
270 267 261 260 262 263 265 265 266 269 271 271 267 263 260 257 253 251 250 248 246 245 245 246 248 251 252 252 253 255 255 256 257 255 251 250 251 253 257 261 265 270 274 277 279 282 286 289 292 294 296 298 299 299 298 294 291 288 286 284 283 283 283 284 285 285 285 285 285 284 284 283 283 283 282 281 280 280 281 281 281 281 281 280 280
270 268 264 263 265 266 268 268 265 263 264 263 261 261 261 259 257 254 252 250 248 247 246 247 249 251 254 255 255 255 255 256 255 252 249 250 253 256 259 262 266 271 275 278 280 284 288 292 295 296 297 299 299 299 296 293 290 287 285 283 283 283 283 284 285 286 286 285 285 284 284 283 283 282 282 281 280 279 279 279 280 281 280 280 280
267 266 265 266 269 271 274 274 267 258 256 256 258 259 259 258 256 253 251 250 249 249 249 249 251 253 254 255 255 255 255 255 254 252 252 254 256 258 260 264 268 272 276 279 282 286 290 294 296 297 298 298 299 298 296 292 289 286 284 283 283 283 284 285 286 286 286 285 285 284 284 283 283 283 282 282 281 280 278 277 277 278 279 279 279
265 263 262 265 268 271 273 272 269 264 260 258 257 257 256 257 256 254 253 252 251 251 251 252 252 253 254 255 255 255 255 255 255 255 255 257 258 260 263 266 269 273 276 280 285 289 292 295 297 297 297 298 299 298 295 292 290 287 285 284 284 284 285 286 287 287 286 286 285 284 284 283 283 283 282 282 281 281 280 277 275 275 276 277 278
260 259 261 266 270 271 270 269 270 270 266 263 261 260 260 261 260 260 258 255 254 253 253 254 255 255 255 256 256 255 255 256 257 258 259 260 261 263 265 267 270 274 279 283 286 290 293 295 296 297 298 299 299 297 294 291 289 286 285 284 284 285 287 287 287 287 286 285 284 283 283 282 282 282 282 281 281 281 281 280 278 276 275 275 276
259 260 264 270 272 271 269 269 270 270 267 266 265 264 264 264 264 262 261 258 258 257 257 257 258 258 257 257 256 256 256 258 259 260 261 262 263 265 266 268 272 276 280 284 287 290 293 295 296 298 299 300 298 296 293 290 287 285 284 284 285 286 287 287 288 287 286 285 283 282 281 281 281 281 281 281 281 281 281 281 280 279 278 277 276
258 260 265 269 270 272 270 269 269 268 268 268 267 265 263 262 261 261 261 261 261 260 259 259 259 259 259 259 259 258 258 259 260 261 262 263 264 266 268 270 273 276 281 284 287 290 293 295 296 298 299 299 297 295 292 290 287 284 283 284 285 286 287 287 287 286 284 283 282 281 280 280 280 280 280 280 280 280 280 280 280 280 279 279 278
255 257 262 267 271 273 273 270 268 267 268 268 266 265 263 262 260 258 259 260 260 260 259 259 259 259 260 260 260 260 259 260 260 261 263 264 265 266 269 271 273 276 280 284 287 290 292 293 295 297 298 298 296 294 292 289 287 285 284 284 285 286 286 286 286 285 284 282 282 281 281 280 280 280 279 279 280 280 280 280 280 280 279 279 279
257 258 262 269 272 274 274 272 270 268 268 266 264 263 263 264 264 262 260 259 260 261 261 260 260 260 260 260 261 261 261 261 261 262 263 264 265 267 269 270 272 275 280 284 287 289 290 291 293 295 297 297 296 293 290 288 286 284 284 284 285 285 285 285 285 284 283 282 281 281 280 280 280 280 279 280 280 280 280 280 280 280 280 280 280
266 266 267 271 276 278 278 276 273 270 268 266 264 263 263 264 266 267 265 263 261 261 262 262 262 261 261 261 261 262 262 262 262 263 264 265 266 267 268 269 271 274 279 283 285 287 288 289 292 294 296 297 295 292 289 286 284 283 283 284 284 284 284 284 283 282 282 281 280 279 279 279 279 279 279 280 280 280 280 280 281 281 281 281 280
268 270 267 270 275 280 283 284 280 274 268 265 264 263 262 262 264 266 267 265 264 264 264 265 264 264 263 262 261 261 262 263 264 264 264 265 265 266 267 268 270 274 278 281 283 285 286 288 290 293 296 297 295 292 288 285 284 282 282 283 283 283 283 283 282 281 280 279 279 279 279 279 279 279 279 279 280 280 280 280 280 280 280 281 280
270 271 268 268 270 277 284 286 283 278 271 267 265 263 261 260 260 263 265 266 267 267 267 267 266 266 266 265 263 263 263 263 263 263 263 264 264 265 266 267 269 272 276 279 282 283 284 286 289 293 296 297 295 291 287 285 283 282 282 282 282 283 282 282 281 280 280 279 278 278 278 278 278 279 279 279 279 279 280 280 280 280 280 280 280
274 275 269 268 270 275 282 284 283 281 275 269 266 264 263 262 262 262 264 265 267 267 268 268 268 268 267 267 265 263 262 262 262 262 262 263 263 264 264 264 267 271 275 278 280 281 283 285 289 292 296 296 294 290 286 284 282 282 282 282 282 282 281 281 280 279 279 278 278 277 278 278 278 278 279 279 279 279 279 279 279 279 280 280 281
275 271 264 265 269 273 279 282 282 280 276 272 268 266 265 265 265 265 266 267 268 268 270 271 271 270 268 267 265 263 262 260 260 260 260 261 261 261 261 263 267 271 275 277 279 280 282 284 288 292 295 295 293 289 285 283 282 282 282 282 282 281 280 280 279 278 277 277 277 277 277 277 277 277 278 278 278 278 278 279 279 280 280 281 281
276 268 262 263 268 274 281 284 283 280 275 272 269 267 267 267 267 267 267 268 269 270 271 272 272 271 269 268 266 264 261 259 258 257 258 259 259 258 259 263 267 271 274 277 278 279 281 284 287 291 293 294 292 288 284 283 282 282 282 282 281 280 279 278 277 276 276 276 275 275 275 276 276 276 276 276 277 277 277 278 279 279 280 281 282
270 266 266 270 275 279 282 283 281 279 275 272 270 268 268 268 268 269 269 269 270 271 271 271 271 271 270 268 266 263 260 258 256 256 256 256 256 256 259 263 268 271 274 276 277 277 280 283 286 290 292 293 291 287 283 282 282 282 281 281 280 278 277 276 275 275 274 274 274 274 274 274 274 274 274 274 275 275 276 277 278 279 280 281 282
269 268 271 275 276 277 277 276 276 275 273 272 271 270 270 270 270 270 270 270 271 271 270 270 269 269 269 267 265 263 259 257 255 255 254 253 253 256 260 265 268 271 274 275 275 276 279 282 286 289 291 292 290 285 282 281 281 281 280 279 278 276 275 274 273 273 273 272 273 273 273 273 272 273 273 273 273 273 275 276 277 278 279 280 281
276 274 273 270 266 263 261 265 269 271 273 274 276 277 276 274 272 270 270 270 270 270 269 268 267 266 266 266 264 263 259 257 255 254 252 251 253 257 261 265 268 270 272 273 273 275 278 282 285 288 291 292 288 283 280 279 279 279 278 277 276 275 274 273 272 271 271 272 272 272 272 272 272 272 272 272 272 273 274 275 276 277 278 279 279
281 276 274 269 264 260 257 258 263 267 272 277 282 285 282 278 274 271 270 269 269 269 267 266 265 264 263 264 264 263 260 257 254 252 250 251 254 259 262 265 267 270 271 271 272 275 279 282 286 288 290 290 286 281 278 278 277 276 275 274 273 273 272 271 271 270 270 271 271 271 271 271 272 273 273 272 273 273 274 275 276 277 277 277 278
275 271 270 269 268 268 267 268 270 273 277 280 282 283 280 276 273 270 269 269 269 269 268 267 265 263 262 262 263 263 261 257 253 250 249 252 256 260 263 265 267 269 269 270 272 276 279 282 286 288 289 288 283 278 277 276 275 274 272 272 271 271 270 270 269 269 269 269 269 270 270 270 271 272 272 273 273 274 275 276 276 276 277 277 278
266 268 269 270 272 276 280 282 283 285 287 288 288 286 281 275 271 269 268 268 270 272 272 271 268 265 263 262 263 264 262 257 252 249 249 253 258 261 264 266 267 268 269 270 273 276 279 283 286 288 288 285 280 276 275 274 273 272 270 269 269 268 268 268 268 268 268 268 268 269 269 269 270 271 271 272 272 273 274 275 275 276 276 276 277
269 273 275 277 279 282 286 289 291 293 294 294 294 292 287 281 275 271 270 271 273 275 276 276 274 271 267 264 264 264 262 258 253 250 250 254 258 263 266 267 267 267 269 270 273 277 280 283 286 287 286 282 277 274 273 273 271 269 268 267 266 266 266 265 266 266 267 267 268 268 268 268 269 269 270 271 272 272 273 274 274 274 274 275 276
281 284 286 288 288 289 290 293 295 297 297 296 295 293 289 283 277 274 272 273 274 275 276 277 277 277 274 269 265 261 261 259 255 252 252 255 259 263 267 267 266 267 269 271 274 278 280 283 285 285 283 278 274 273 272 271 269 267 266 265 264 264 264 265 265 266 266 267 267 267 267 268 268 269 270 271 272 273 273 274 274 273 274 275 275
292 293 294 294 295 295 296 296 297 297 296 295 293 290 285 280 276 273 271 272 273 273 275 276 279 281 280 274 267 261 259 259 257 255 254 256 259 263 267 268 266 266 268 271 275 278 280 282 284 283 280 275 272 271 270 269 267 265 264 263 263 263 264 264 264 264 264 264 264 265 265 267 268 270 271 272 273 273 273 274 274 274 275 275 276
300 300 299 298 297 297 297 297 296 294 292 290 288 286 283 279 275 272 272 273 273 273 275 278 280 282 280 275 269 262 258 257 258 257 256 257 259 263 266 268 266 265 268 272 275 278 280 282 283 281 276 272 270 270 268 266 265 264 263 263 263 263 263 262 261 261 261 261 263 264 266 268 269 271 272 273 273 274 274 275 274 275 275 276 277
307 305 303 301 299 297 295 294 292 290 288 286 285 284 283 281 278 277 277 277 276 277 279 280 281 280 277 273 268 263 259 256 256 257 257 257 258 262 266 267 265 265 269 272 275 278 280 281 281 278 273 270 269 268 266 264 263 262 262 262 262 262 262 261 260 260 260 261 263 265 266 268 270 271 272 273 274 274 274 275 275 275 276 277 278
310 308 306 304 301 298 296 294 292 290 288 285 284 284 283 283 282 281 281 280 280 281 281 280 279 275 272 270 266 263 260 256 254 254 254 255 258 262 265 264 263 266 270 274 276 279 280 280 278 274 270 268 267 265 263 262 260 260 260 261 261 261 262 262 262 262 262 263 265 266 268 269 270 272 272 273 274 274 274 275 275 276 277 277 278
313 311 309 306 303 301 299 297 295 293 290 288 285 283 282 282 281 281 282 282 282 283 282 279 275 271 268 266 263 261 259 257 254 252 253 255 258 260 261 261 264 268 272 275 277 278 278 277 275 271 268 266 265 262 261 259 258 258 259 260 261 261 261 262 263 264 265 266 267 268 269 270 271 272 273 274 274 274 275 275 276 277 278 278 279
313 311 309 308 306 304 301 299 297 295 293 290 288 286 284 282 281 280 280 280 281 282 282 279 275 271 268 265 263 261 259 257 255 253 253 255 256 258 260 263 268 271 273 275 276 277 277 275 273 269 266 265 263 261 259 258 257 257 258 259 261 262 263 262 262 263 265 266 268 269 271 272 274 274 275 276 276 277 277 277 277 278 279 279 279
310 309 308 307 306 305 304 302 300 298 296 293 291 289 287 285 284 282 281 280 279 279 279 279 277 274 270 268 266 263 260 258 255 254 254 255 257 260 264 267 270 272 274 275 276 276 276 274 270 266 265 263 261 259 258 257 257 257 258 259 261 263 264 264 264 263 264 265 267 269 271 273 274 274 275 275 275 275 275 275 276 276 277 277 277
305 303 303 303 302 302 302 301 300 299 297 296 293 291 288 287 285 283 282 281 279 277 276 276 276 275 272 269 267 264 261 258 255 255 257 259 262 265 267 269 271 273 274 275 276 276 274 270 267 264 263 262 259 257 257 257 257 257 258 260 261 263 264 265 265 266 266 267 268 270 272 273 273 274 274 273 272 272 273 273 274 274 274 274 275
302 299 298 297 297 297 297 297 297 296 295 295 293 291 289 287 285 283 281 280 279 277 275 274 274 272 269 266 264 262 259 257 257 259 261 263 265 267 268 270 271 273 274 275 276 275 272 268 265 264 262 260 257 256 256 257 257 257 259 260 262 263 264 265 266 268 269 270 271 272 274 275 275 276 275 274 274 274 274 275 275 276 275 275 275
304 302 300 298 297 297 296 296 295 294 292 291 290 288 287 286 284 282 280 278 278 276 273 271 270 267 263 260 259 257 257 258 261 263 264 265 266 267 268 270 272 274 275 276 275 273 269 266 264 262 260 258 256 255 256 257 257 257 259 261 262 263 263 264 266 268 269 270 272 273 274 275 276 276 276 275 275 275 276 277 277 277 276 277 280
307 305 303 301 300 299 299 298 298 297 294 292 290 288 286 284 282 280 278 276 275 273 271 268 265 262 258 256 256 256 258 261 263 264 265 265 266 267 269 272 273 275 275 275 273 270 267 264 262 260 259 257 255 254 254 256 257 257 259 261 262 263 264 265 267 268 269 271 273 274 275 275 276 276 276 276 276 276 277 277 276 276 278 280 281
308 306 304 304 303 302 303 303 303 303 301 298 296 292 289 286 283 279 276 274 271 270 268 265 261 257 255 255 257 259 261 263 263 264 264 266 268 270 272 274 275 275 275 274 271 268 265 262 260 259 257 256 255 253 253 255 257 258 259 261 262 264 266 267 268 269 270 272 274 275 275 275 276 276 276 277 277 276 276 276 276 278 280 281 281
308 307 307 306 305 304 305 306 306 306 304 303 300 297 294 290 285 279 275 272 269 267 264 259 255 253 255 257 259 261 263 264 264 265 267 269 272 274 275 276 277 276 275 273 269 266 264 262 259 258 257 256 255 254 253 254 257 258 259 261 264 266 267 268 269 270 271 273 274 275 276 277 277 277 277 277 276 276 276 276 278 280 282 283 283
310 310 310 308 307 307 308 309 309 308 306 305 303 299 296 292 287 282 277 272 267 262 257 252 251 254 257 259 261 262 264 265 266 269 271 273 275 276 277 278 277 276 274 271 268 266 263 261 259 258 257 256 255 255 254 254 256 258 260 262 264 267 268 269 271 272 273 274 276 277 278 278 277 277 276 276 276 276 276 277 279 280 281 281 280
312 311 310 309 308 308 309 310 311 310 308 307 305 302 300 296 292 286 279 272 265 257 250 249 253 258 260 261 262 264 266 268 271 273 275 276 277 278 278 278 277 275 273 270 267 264 262 261 260 258 258 257 256 256 256 255 256 258 261 263 264 266 268 270 272 274 276 278 279 280 279 278 277 276 276 275 275 275 276 277 278 279 279 279 278
311 311 310 309 308 309 310 311 312 311 309 308 307 305 302 298 294 287 279 270 261 254 252 255 260 262 264 265 267 269 271 274 275 276 277 278 278 278 278 277 276 274 272 269 266 264 262 261 259 258 258 257 257 257 258 258 259 260 261 263 264 266 268 271 273 276 278 280 281 281 280 280 279 279 278 278 278 278 278 278 279 279 279 278 277
310 310 309 308 308 309 311 311 312 311 309 307 306 303 300 295 292 287 281 272 263 257 257 260 264 266 268 270 272 274 276 277 278 278 278 278 278 278 278 276 274 272 270 267 264 262 261 260 259 259 258 257 258 259 260 260 261 261 261 262 264 266 269 271 274 277 279 280 281 281 280 281 281 281 281 282 282 282 282 281 281 280 279 278 277
310 311 310 309 310 310 311 312 312 312 311 308 305 300 295 291 288 286 283 279 274 270 269 269 270 271 273 274 276 277 278 278 278 278 278 278 278 278 276 274 271 268 265 263 261 261 260 260 260 260 258 257 258 260 261 262 262 262 263 264 266 268 270 273 275 277 278 279 279 279 280 280 281 282 282 283 283 283 282 281 280 279 277 276 276
311 311 311 310 310 311 311 313 314 314 312 310 306 301 295 290 286 283 280 279 278 277 276 276 276 276 276 277 277 277 277 277 277 277 278 278 276 274 272 270 267 264 263 262 260 260 261 261 261 260 259 260 260 260 262 262 262 263 265 266 268 270 272 274 276 277 278 279 279 279 280 280 281 282 282 283 283 282 280 278 276 276 275 275 275
311 311 310 309 310 310 312 313 314 314 312 310 307 302 297 292 288 284 280 278 276 275 275 275 275 275 275 275 275 275 275 276 276 276 275 273 271 269 268 266 264 262 262 261 260 261 261 261 261 261 261 262 262 261 261 261 262 264 266 268 270 271 273 274 275 276 277 277 277 278 279 280 281 282 282 282 281 279 278 277 277 276 276 276 276
311 311 309 309 309 310 311 313 314 314 313 311 308 304 298 294 289 285 282 279 276 274 274 273 272 273 273 273 273 274 274 274 273 272 270 268 267 267 265 264 262 261 261 261 261 261 261 261 262 263 264 264 263 262 261 262 264 266 268 269 270 271 273 274 274 275 275 276 277 278 280 281 282 281 280 279 277 277 276 276 276 275 274 274 274
311 310 309 309 309 310 311 313 315 315 314 312 309 305 300 296 292 288 284 281 278 276 275 273 273 272 272 272 272 272 272 271 269 268 267 266 265 264 263 262 261 260 261 262 263 263 263 263 264 264 264 265 266 265 264 264 266 268 270 271 272 272 273 273 274 275 276 277 278 280 280 280 278 276 275 274 273 273 273 272 272 271 271 272 273
Height
3074 3074 3073 3073 3073 3073 3074 3073 3073 3072 3072 3073 3073 3075 3076 3077 3078 3079 3079 3079 3079 3080 3081 3082 3083 3084 3085 3086 3087 3088 3088 3087 3088 3089 3089 3090 3090 3091 3091 3091 3090 3090 3090 3091 3091 3090 3090 3090 3090 3090 3090 3089 3089 3088 3087 3086 3085 3084 3084 3083 3082 3082 3082 3081 3080 3080 3080 3080 3080 3080 3080 3079 3079 3078 3077 3077 3077 3076 3076 3075 3075 3075 3074 3074 3074
3069 3069 3069 3069 3069 3070 3070 3070 3070 3069 3069 3070 3070 3071 3072 3073 3074 3075 3076 3075 3076 3077 3078 3079 3080 3081 3082 3083 3083 3083 3083 3084 3084 3085 3086 3086 3087 3087 3088 3088 3088 3087 3087 3087 3087 3087 3086 3086 3086 3085 3085 3085 3085 3084 3083 3082 3081 3080 3079 3079 3078 3077 3077 3077 3076 3075 3075 3075 3075 3075 3075 3075 3074 3073 3073 3073 3072 3071 3071 3070 3070 3070 3070 3070 3069
3065 3066 3066 3066 3066 3066 3066 3067 3067 3067 3067 3068 3068 3068 3069 3069 3070 3071 3072 3072 3073 3074 3074 3076 3077 3078 3079 3079 3079 3079 3079 3080 3081 3081 3082 3082 3083 3084 3084 3085 3085 3085 3084 3084 3084 3083 3083 3082 3082 3081 3081 3081 3081 3080 3079 3078 3077 3076 3075 3074 3074 3073 3073 3072 3072 3071 3070 3070 3069 3069 3070 3070 3069 3068 3068 3068 3067 3066 3066 3065 3065 3065 3064 3064 3064
3062 3062 3063 3063 3063 3062 3062 3063 3063 3064 3064 3064 3065 3065 3065 3066 3067 3068 3068 3069 3070 3070 3071 3072 3073 3074 3075 3075 3075 3074 3075 3076 3076 3077 3077 3078 3079 3080 3081 3081 3081 3081 3081 3081 3080 3080 3079 3078 3078 3077 3077 3077 3077 3076 3075 3074 3073 3071 3071 3070 3069 3069 3069 3068 3067 3067 3066 3065 3064 3063 3064 3064 3064 3064 3063 3062 3062 3061 3060 3060 3060 3059 3059 3059 3059
3059 3059 3060 3060 3059 3059 3059 3060 3059 3059 3059 3060 3061 3061 3062 3063 3063 3064 3065 3065 3066 3067 3068 3068 3069 3069 3070 3070 3070 3070 3071 3072 3072 3073 3074 3075 3076 3077 3077 3077 3077 3077 3077 3077 3077 3076 3075 3075 3074 3073 3073 3072 3072 3071 3070 3069 3068 3067 3066 3066 3065 3065 3064 3064 3063 3063 3061 3061 3060 3059 3058 3058 3058 3059 3058 3057 3056 3055 3055 3054 3054 3054 3053 3053 3053
3057 3057 3057 3056 3057 3057 3056 3056 3055 3055 3056 3057 3057 3057 3058 3059 3059 3060 3060 3061 3062 3063 3064 3064 3064 3065 3065 3065 3066 3067 3068 3069 3070 3071 3071 3071 3072 3072 3073 3073 3073 3073 3073 3073 3073 3072 3072 3071 3070 3070 3069 3068 3067 3066 3065 3064 3063 3062 3062 3061 3061 3060 3060 3059 3059 3058 3057 3056 3056 3055 3054 3053 3053 3053 3053 3052 3052 3051 3050 3049 3049 3048 3048 3048 3047
3054 3054 3054 3053 3053 3053 3053 3053 3053 3053 3053 3053 3053 3053 3054 3054 3055 3055 3056 3057 3058 3059 3060 3060 3060 3060 3061 3062 3063 3063 3064 3065 3066 3067 3067 3067 3067 3068 3068 3069 3069 3069 3069 3069 3069 3068 3068 3067 3066 3065 3064 3063 3062 3061 3060 3059 3058 3058 3057 3056 3056 3055 3055 3054 3054 3053 3052 3051 3051 3050 3049 3048 3047 3047 3047 3047 3047 3046 3045 3044 3043 3043 3043 3042 3042
3050 3050 3049 3050 3050 3049 3050 3050 3050 3050 3050 3049 3049 3049 3050 3050 3051 3052 3052 3053 3054 3054 3055 3055 3056 3056 3057 3058 3058 3059 3060 3062 3062 3062 3062 3062 3063 3063 3064 3064 3065 3065 3065 3064 3064 3063 3063 3062 3061 3061 3060 3058 3057 3056 3056 3055 3054 3053 3052 3051 3050 3050 3050 3049 3049 3048 3047 3046 3045 3044 3043 3043 3042 3042 3041 3041 3041 3041 3041 3040 3039 3038 3037 3037 3037
3046 3046 3046 3046 3046 3046 3046 3046 3046 3046 3046 3045 3046 3046 3046 3046 3047 3047 3048 3048 3049 3050 3050 3051 3052 3052 3053 3053 3054 3055 3056 3057 3057 3057 3057 3058 3059 3059 3060 3060 3060 3060 3060 3059 3059 3058 3058 3057 3056 3056 3055 3054 3052 3052 3051 3049 3048 3047 3047 3046 3045 3045 3044 3044 3044 3042 3042 3040 3039 3039 3037 3037 3036 3036 3036 3035 3035 3035 3036 3036 3035 3034 3033 3032 3031
3043 3043 3043 3043 3043 3043 3043 3042 3042 3042 3042 3042 3042 3042 3042 3042 3042 3042 3043 3044 3045 3045 3046 3046 3047 3048 3048 3049 3049 3051 3051 3052 3051 3051 3053 3054 3055 3055 3055 3055 3055 3055 3055 3054 3054 3053 3052 3052 3051 3051 3050 3049 3048 3047 3046 3044 3043 3042 3041 3040 3039 3039 3039 3038 3038 3037 3036 3035 3034 3033 3032 3031 3030 3030 3030 3029 3029 3029 3030 3030 3031 3030 3029 3027 3026
3040 3040 3040 3040 3039 3039 3039 3038 3039 3039 3038 3038 3038 3038 3038 3038 3038 3038 3039 3040 3040 3041 3041 3042 3042 3043 3044 3045 3045 3046 3046 3046 3046 3047 3048 3049 3050 3050 3050 3050 3050 3050 3049 3048 3048 3048 3047 3046 3046 3045 3045 3044 3043 3042 3041 3039 3038 3037 3035 3034 3034 3034 3033 3032 3032 3031 3030 3029 3028 3027 3026 3026 3025 3025 3024 3024 3023 3023 3023 3023 3024 3024 3024 3024 3023
3037 3036 3036 3036 3036 3035 3035 3035 3035 3035 3034 3034 3034 3034 3034 3034 3034 3034 3034 3035 3036 3036 3037 3037 3038 3038 3039 3040 3041 3041 3041 3041 3041 3042 3043 3044 3045 3045 3044 3044 3044 3044 3043 3043 3043 3042 3042 3041 3040 3040 3039 3038 3037 3036 3036 3035 3033 3032 3031 3030 3029 3028 3028 3027 3026 3025 3024 3024 3023 3022 3021 3021 3020 3019 3019 3018 3018 3018 3017 3017 3017 3017 3018 3018 3018
3033 3033 3032 3032 3032 3031 3031 3031 3031 3031 3030 3030 3030 3030 3030 3030 3029 3029 3030 3030 3031 3032 3032 3033 3033 3033 3034 3035 3036 3037 3036 3036 3036 3037 3038 3039 3039 3039 3039 3039 3039 3038 3038 3037 3037 3037 3036 3035 3035 3034 3033 3033 3032 3031 3030 3029 3028 3027 3026 3025 3024 3023 3022 3021 3020 3020 3019 3018 3017 3017 3016 3015 3015 3014 3014 3013 3013 3012 3012 3012 3011 3011 3011 3012 3012
3029 3029 3029 3028 3028 3027 3027 3027 3027 3026 3026 3026 3026 3025 3025 3025 3025 3025 3025 3026 3026 3026 3027 3027 3028 3029 3030 3030 3031 3031 3031 3031 3032 3032 3033 3034 3034 3034 3033 3034 3033 3033 3033 3032 3032 3031 3030 3029 3029 3029 3028 3027 3027 3026 3025 3024 3023 3021 3020 3019 3018 3017 3016 3016 3015 3014 3013 3012 3011 3011 3010 3010 3009 3009 3008 3008 3007 3007 3006 3006 3006 3006 3006 3006 3006
3026 3026 3025 3024 3024 3023 3023 3023 3022 3022 3022 3021 3021 3021 3020 3020 3020 3020 3021 3021 3021 3021 3022 3022 3023 3024 3025 3025 3026 3026 3026 3027 3027 3027 3028 3028 3028 3028 3028 3028 3028 3027 3027 3026 3026 3025 3024 3024 3024 3023 3022 3022 3021 3020 3020 3019 3017 3016 3015 3014 3013 3012 3011 3010 3009 3008 3007 3007 3006 3005 3004 3004 3004 3003 3003 3002 3002 3001 3001 3000 3000 3000 2999 2999 2999
3023 3022 3022 3021 3020 3019 3018 3018 3018 3017 3017 3016 3016 3016 3015 3015 3016 3016 3016 3016 3016 3016 3017 3017 3018 3018 3019 3020 3020 3021 3021 3021 3022 3022 3022 3023 3023 3023 3023 3022 3022 3022 3021 3021 3020 3020 3019 3019 3018 3017 3016 3016 3015 3014 3014 3013 3012 3010 3009 3008 3007 3006 3005 3004 3004 3003 3002 3001 3000 3000 2999 2999 2998 2998 2997 2997 2996 2996 2995 2995 2994 2994 2993 2993 2993
3020 3020 3019 3018 3016 3015 3014 3014 3013 3012 3012 3011 3011 3011 3010 3010 3010 3010 3011 3011 3011 3012 3012 3012 3012 3013 3013 3014 3015 3015 3015 3016 3016 3017 3017 3017 3017 3017 3017 3017 3016 3016 3016 3016 3015 3014 3014 3013 3012 3011 3010 3009 3008 3008 3008 3007 3006 3005 3004 3003 3002 3001 3000 2999 2998 2997 2996 2996 2995 2994 2994 2993 2993 2992 2992 2991 2991 2990 2990 2989 2989 2988 2988 2987 2987
3017 3017 3017 3015 3013 3011 3010 3009 3008 3007 3007 3006 3006 3005 3005 3005 3005 3005 3005 3006 3006 3006 3006 3006 3007 3007 3007 3008 3008 3009 3010 3010 3010 3011 3011 3011 3011 3011 3011 3011 3011 3011 3011 3010 3009 3008 3008 3007 3007 3006 3004 3003 3002 3002 3001 3001 3000 2999 2998 2997 2996 2995 2994 2993 2992 2991 2990 2990 2989 2989 2988 2988 2987 2987 2987 2986 2985 2985 2984 2984 2983 2983 2982 2982 2981
3013 3013 3013 3011 3009 3007 3006 3005 3004 3003 3002 3001 3000 3000 2999 2999 2999 3000 3000 3000 3001 3001 3001 3001 3001 3001 3001 3002 3002 3003 3003 3004 3004 3005 3005 3005 3005 3005 3006 3006 3006 3006 3005 3004 3003 3003 3002 3001 3001 3000 2999 2998 2996 2996 2995 2994 2994 2993 2992 2991 2990 2989 2988 2987 2986 2985 2985 2984 2984 2983 2983 2982 2982 2982 2981 2981 2980 2979 2979 2978 2978 2977 2977 2976 2976
3008 3008 3008 3005 3004 3003 3002 3001 2999 2998 2997 2996 2995 2995 2994 2994 2994 2994 2994 2994 2994 2994 2995 2995 2995 2995 2995 2996 2996 2996 2997 2997 2998 2998 2998 2999 2999 2999 3000 3000 3000 3000 2999 2998 2997 2997 2996 2996 2995 2994 2993 2992 2991 2990 2989 2988 2987 2986 2985 2985 2984 2983 2982 2981 2980 2980 2979 2979 2978 2978 2978 2977 2977 2976 2976 2975 2975 2974 2973 2973 2972 2972 2971 2971 2970
3003 3003 3001 3000 2999 2998 2997 2996 2994 2993 2992 2991 2990 2989 2989 2988 2988 2988 2988 2988 2988 2988 2989 2989 2989 2989 2989 2989 2990 2990 2990 2990 2991 2992 2992 2992 2993 2993 2994 2995 2994 2994 2993 2992 2991 2991 2990 2990 2989 2988 2987 2986 2985 2984 2983 2982 2981 2980 2979 2978 2977 2977 2976 2975 2975 2974 2974 2974 2973 2973 2972 2972 2972 2971 2971 2970 2970 2969 2968 2968 2967 2966 2966 2965 2965
2998 2998 2997 2996 2994 2993 2992 2990 2989 2988 2986 2985 2985 2984 2983 2983 2982 2982 2982 2981 2982 2982 2982 2982 2982 2982 2982 2983 2983 2983 2983 2984 2984 2985 2985 2986 2987 2988 2988 2988 2988 2988 2986 2986 2985 2985 2985 2984 2983 2982 2981 2980 2979 2977 2976 2975 2974 2973 2973 2972 2971 2971 2970 2969 2969 2968 2968 2968 2967 2967 2967 2967 2966 2966 2966 2965 2964 2964 2963 2963 2962 2961 2961 2960 2959
2992 2991 2990 2990 2989 2988 2987 2985 2984 2982 2981 2980 2979 2979 2978 2978 2977 2977 2976 2976 2976 2975 2975 2975 2975 2975 2976 2976 2976 2976 2977 2977 2978 2978 2979 2980 2981 2981 2982 2982 2982 2981 2980 2980 2979 2979 2979 2978 2977 2976 2975 2974 2973 2971 2970 2969 2968 2967 2966 2966 2965 2964 2964 2963 2963 2963 2962 2962 2962 2962 2962 2961 2961 2960 2960 2960 2959 2959 2958 2957 2957 2956 2956 2955 2954
2986 2984 2983 2982 2982 2981 2980 2979 2978 2977 2976 2975 2975 2974 2973 2973 2972 2971 2971 2970 2970 2969 2969 2969 2969 2969 2969 2969 2969 2970 2970 2971 2971 2972 2973 2974 2975 2975 2976 2976 2975 2974 2974 2973 2973 2973 2972 2971 2971 2970 2969 2967 2966 2965 2964 2963 2962 2961 2960 2960 2959 2958 2958 2957 2957 2957 2956 2956 2956 2956 2956 2955 2955 2954 2955 2955 2954 2953 2953 2952 2952 2951 2951 2950 2949
2982 2979 2978 2977 2976 2975 2974 2972 2971 2970 2970 2969 2969 2969 2968 2967 2967 2966 2965 2964 2964 2963 2963 2962 2962 2962 2962 2962 2962 2963 2964 2964 2965 2966 2967 2968 2969 2969 2969 2969 2968 2967 2967 2967 2967 2967 2966 2965 2964 2963 2962 2961 2960 2959 2958 2957 2956 2955 2954 2954 2953 2952 2952 2951 2951 2951 2951 2950 2950 2950 2950 2949 2949 2949 2949 2949 2948 2948 2947 2947 2947 2946 2946 2945 2944
2977 2975 2974 2973 2972 2971 2969 2968 2967 2966 2964 2963 2963 2962 2962 2961 2960 2960 2959 2958 2958 2957 2956 2956 2955 2955 2955 2955 2955 2956 2957 2958 2959 2960 2961 2962 2963 2963 2963 2962 2962 2961 2960 2960 2960 2960 2959 2958 2957 2956 2955 2954 2953 2953 2952 2951 2950 2949 2948 2947 2947 2946 2946 2945 2945 2945 2945 2945 2945 2945 2944 2944 2943 2944 2944 2943 2943 2942 2942 2942 2941 2941 2940 2940 2939
2973 2971 2970 2968 2967 2966 2964 2963 2962 2961 2959 2958 2957 2956 2955 2955 2954 2954 2953 2952 2952 2951 2951 2950 2949 2949 2948 2948 2948 2950 2951 2952 2953 2954 2955 2955 2956 2956 2956 2955 2955 2954 2954 2954 2953 2953 2952 2951 2950 2949 2948 2948 2947 2946 2945 2945 2944 2943 2942 2941 2941 2940 2940 2940 2940 2940 2940 2939 2939 2939 2939 2938 2938 2938 2938 2938 2938 2937 2937 2936 2936 2936 2935 2934 2933
2969 2967 2965 2963 2962 2961 2960 2958 2957 2955 2954 2952 2951 2950 2949 2949 2948 2948 2947 2946 2946 2945 2945 2944 2943 2943 2943 2942 2942 2943 2944 2945 2946 2947 2948 2949 2949 2949 2949 2948 2947 2947 2947 2947 2946 2945 2945 2944 2943 2942 2942 2941 2940 2939 2939 2938 2938 2937 2936 2935 2935 2935 2934 2934 2934 2934 2934 2933 2933 2933 2933 2933 2933 2933 2933 2933 2933 2932 2932 2931 2931 2931 2930 2929 2928
2964 2962 2960 2958 2957 2956 2955 2953 2952 2950 2949 2947 2946 2945 2944 2943 2942 2942 2941 2940 2940 2939 2939 2938 2937 2937 2937 2937 2936 2936 2937 2938 2939 2940 2941 2942 2942 2942 2941 2941 2940 2940 2940 2940 2939 2938 2938 2937 2936 2935 2935 2934 2933 2933 2933 2932 2931 2931 2930 2929 2929 2929 2929 2929 2928 2928 2928 2928 2928 2928 2928 2928 2928 2928 2928 2928 2927 2927 2926 2926 2926 2925 2924 2923 2923
2959 2957 2955 2954 2952 2951 2950 2948 2947 2946 2944 2942 2941 2940 2938 2938 2937 2936 2935 2935 2934 2933 2933 2932 2932 2931 2931 2930 2930 2929 2929 2930 2931 2933 2934 2935 2935 2935 2934 2933 2933 2933 2933 2933 2932 2931 2931 2930 2929 2929 2928 2927 2927 2927 2926 2926 2925 2924 2924 2923 2923 2923 2923 2923 2922 2922 2923 2923 2923 2922 2922 2922 2922 2922 2922 2922 2922 2921 2921 2920 2920 2919 2918 2917 2916
2954 2953 2951 2949 2948 2946 2945 2944 2942 2941 2939 2937 2935 2934 2933 2932 2931 2931 2930 2929 2928 2927 2927 2926 2926 2925 2924 2923 2923 2922 2922 2923 2924 2925 2926 2927 2927 2927 2926 2926 2926 2926 2926 2926 2925 2924 2924 2923 2922 2922 2921 2920 2920 2920 2920 2919 2919 2918 2918 2917 2917 2917 2917 2917 2917 2918 2918 2918 2917 2917 2917 2917 2917 2917 2917 2916 2916 2916 2915 2915 2913 2912 2912 2911 2910
2950 2948 2945 2944 2942 2941 2940 2939 2937 2936 2934 2932 2930 2928 2927 2926 2925 2925 2924 2923 2922 2921 2920 2920 2919 2918 2917 2917 2916 2916 2915 2915 2916 2917 2919 2920 2919 2919 2919 2919 2919 2919 2919 2919 2918 2917 2916 2916 2915 2914 2914 2914 2914 2913 2913 2913 2913 2912 2912 2911 2911 2911 2911 2911 2912 2912 2912 2912 2912 2912 2912 2912 2912 2912 2911 2911 2911 2911 2910 2908 2907 2906 2905 2905 2904
2946 2943 2941 2939 2937 2935 2934 2933 2931 2929 2928 2926 2924 2921 2920 2920 2919 2918 2916 2916 2915 2914 2913 2912 2912 2911 2910 2910 2909 2908 2908 2908 2909 2909 2910 2911 2911 2911 2912 2912 2912 2913 2912 2911 2911 2910 2909 2908 2908 2907 2907 2907 2907 2907 2907 2907 2907 2906 2906 2905 2905 2904 2904 2905 2905 2906 2906 2906 2906 2906 2906 2906 2906 2906 2906 2906 2906 2905 2904 2902 2901 2899 2899 2899 2898
2941 2939 2937 2934 2932 2930 2929 2927 2925 2923 2921 2919 2917 2915 2914 2913 2911 2910 2909 2908 2907 2906 2905 2905 2904 2903 2903 2903 2902 2901 2901 2902 2902 2902 2902 2903 2904 2904 2905 2905 2905 2905 2905 2904 2903 2902 2901 2901 2900 2900 2900 2900 2900 2901 2901 2901 2900 2900 2900 2899 2898 2897 2898 2898 2899 2899 2900 2900 2900 2900 2900 2901 2901 2900 2900 2900 2900 2898 2897 2895 2894 2893 2893 2892 2892
2935 2933 2931 2928 2926 2924 2923 2921 2919 2917 2915 2913 2911 2908 2907 2906 2904 2903 2902 2901 2899 2899 2898 2897 2897 2896 2896 2895 2895 2895 2895 2894 2895 2895 2895 2896 2897 2898 2898 2898 2898 2897 2897 2896 2895 2894 2894 2893 2893 2893 2893 2893 2894 2894 2895 2894 2894 2894 2894 2892 2891 2890 2891 2892 2893 2893 2894 2894 2894 2894 2894 2895 2895 2894 2894 2894 2893 2891 2890 2888 2887 2887 2886 2886 2885
2928 2926 2923 2921 2919 2917 2915 2913 2911 2909 2907 2905 2903 2901 2899 2898 2897 2895 2894 2893 2892 2891 2891 2890 2890 2889 2889 2888 2888 2888 2888 2888 2888 2888 2889 2890 2890 2891 2891 2891 2890 2890 2889 2888 2887 2887 2886 2886 2886 2886 2886 2887 2888 2888 2888 2888 2888 2888 2887 2886 2884 2884 2884 2885 2886 2887 2888 2888 2888 2888 2889 2889 2888 2889 2889 2888 2887 2885 2884 2882 2882 2881 2881 2880 2879
2923 2920 2918 2916 2913 2910 2908 2905 2903 2901 2899 2896 2894 2892 2890 2889 2888 2887 2886 2885 2884 2884 2883 2883 2883 2882 2882 2882 2881 2881 2881 2882 2882 2882 2883 2883 2884 2884 2884 2883 2883 2882 2881 2881 2880 2879 2879 2879 2879 2879 2880 2881 2881 2881 2881 2881 2881 2881 2880 2879 2878 2878 2878 2878 2879 2881 2881 2882 2882 2883 2883 2883 2883 2883 2883 2882 2881 2879 2878 2877 2876 2876 2875 2874 2874
2916 2913 2911 2909 2907 2905 2902 2899 2896 2894 2892 2888 2886 2884 2882 2881 2880 2878 2877 2877 2876 2876 2876 2875 2875 2875 2875 2875 2875 2875 2875 2875 2876 2876 2877 2877 2877 2877 2877 2876 2875 2875 2874 2873 2873 2872 2872 2872 2872 2873 2874 2875 2875 2875 2875 2875 2875 2875 2874 2873 2872 2872 2872 2873 2874 2874 2875 2875 2875 2876 2876 2876 2876 2876 2876 2875 2874 2873 2871 2870 2870 2869 2868 2867 2867
2910 2906 2903 2901 2899 2897 2895 2893 2890 2887 2885 2882 2879 2876 2874 2873 2871 2870 2869 2868 2868 2868 2868 2868 2868 2867 2867 2868 2868 2869 2869 2869 2869 2870 2870 2870 2870 2870 2869 2869 2868 2867 2867 2866 2865 2865 2865 2865 2866 2867 2867 2868 2869 2869 2869 2869 2869 2868 2868 2867 2866 2866 2867 2867 2868 2868 2868 2868 2869 2869 2870 2870 2870 2870 2869 2868 2867 2866 2864 2864 2863 2861 2859 2859 2861
2902 2899 2896 2894 2892 2889 2886 2884 2882 2879 2876 2874 2871 2869 2867 2865 2863 2862 2861 2860 2860 2860 2860 2860 2860 2860 2860 2861 2862 2862 2862 2862 2863 2863 2863 2863 2863 2863 2862 2861 2861 2860 2859 2859 2858 2858 2858 2859 2860 2861 2861 2862 2863 2864 2863 2863 2862 2862 2862 2861 2860 2860 2861 2862 2863 2862 2862 2862 2863 2864 2864 2864 2864 2863 2862 2861 2861 2859 2858 2857 2855 2853 2852 2853 2854
2896 2893 2889 2887 2885 2883 2880 2877 2874 2871 2868 2866 2863 2860 2859 2857 2855 2854 2853 2852 2852 2852 2852 2853 2853 2853 2854 2854 2855 2855 2856 2856 2856 2857 2857 2856 2856 2856 2855 2854 2853 2853 2852 2852 2852 2852 2852 2853 2854 2855 2855 2856 2857 2858 2858 2857 2856 2856 2856 2855 2854 2854 2855 2856 2856 2856 2856 2856 2857 2858 2858 2858 2857 2857 2856 2855 2854 2853 2851 2849 2847 2845 2845 2846 2845
2891 2888 2884 2881 2878 2877 2874 2871 2868 2865 2862 2859 2855 2853 2851 2849 2847 2846 2846 2845 2845 2845 2846 2846 2846 2847 2847 2848 2849 2849 2850 2850 2850 2850 2850 2850 2849 2849 2848 2847 2846 2846 2845 2845 2845 2846 2846 2847 2848 2848 2849 2850 2851 2852 2852 2851 2851 2850 2850 2850 2849 2849 2849 2849 2849 2849 2850 2850 2851 2852 2852 2852 2851 2850 2849 2848 2847 2846 2844 2842 2840 2839 2839 2838 2835
2884 2881 2879 2875 2872 2870 2868 2865 2862 2859 2856 2853 2849 2847 2845 2843 2841 2840 2840 2839 2839 2839 2839 2839 2839 2840 2841 2842 2842 2843 2843 2844 2844 2844 2843 2843 2842 2842 2841 2840 2839 2839 2839 2839 2839 2840 2841 2841 2842 2843 2843 2844 2845 2845 2846 2846 2845 2845 2845 2844 2844 2843 2843 2843 2843 2843 2844 2844 2845 2845 2845 2845 2844 2843 2842 2841 2840 2839 2837 2835 2835 2834 2832 2830 2828
2878 2875 2873 2870 2866 2864 2862 2859 2857 2853 2850 2847 2844 2841 2839 2838 2836 2835 2834 2833 2833 2832 2832 2833 2833 2834 2835 2836 2837 2837 2837 2837 2837 2837 2837 2836 2835 2835 2834 2833 2833 2833 2833 2833 2834 2834 2835 2835 2836 2837 2838 2838 2839 2839 2839 2840 2840 2840 2839 2839 2838 2838 2838 2837 2836 2836 2837 2837 2838 2838 2837 2837 2836 2835 2835 2834 2834 2832 2831 2830 2829 2827 2825 2823 2821
2872 2870 2867 2864 2861 2858 2855 2854 2851 2848 2845 2842 2839 2837 2835 2833 2832 2831 2830 2828 2828 2827 2828 2828 2829 2830 2831 2831 2831 2832 2832 2832 2831 2831 2830 2829 2829 2828 2827 2827 2827 2827 2827 2828 2828 2829 2829 2829 2830 2831 2832 2833 2833 2832 2833 2834 2834 2835 2834 2833 2833 2833 2832 2832 2831 2831 2831 2831 2830 2830 2829 2828 2827 2827 2827 2826 2826 2825 2824 2823 2821 2819 2817 2815 2813
2867 2864 2862 2859 2856 2853 2850 2848 2846 2843 2840 2838 2835 2833 2831 2830 2828 2827 2826 2825 2824 2824 2824 2824 2825 2826 2826 2826 2827 2827 2826 2826 2825 2825 2824 2823 2822 2822 2821 2821 2821 2821 2822 2822 2823 2823 2823 2824 2824 2826 2827 2827 2826 2826 2827 2828 2828 2828 2828 2828 2828 2828 2828 2827 2826 2826 2825 2824 2823 2822 2821 2820 2819 2819 2818 2818 2817 2817 2816 2814 2813 2811 2809 2807 2805
2861 2859 2856 2853 2850 2848 2845 2843 2840 2838 2836 2833 2831 2829 2827 2826 2824 2823 2822 2821 2821 2820 2820 2821 2821 2821 2822 2822 2822 2821 2821 2820 2819 2818 2818 2817 2817 2816 2816 2816 2816 2816 2816 2817 2817 2817 2818 2818 2819 2820 2820 2821 2821 2821 2822 2823 2822 2821 2822 2822 2822 2823 2822 2822 2821 2820 2820 2818 2817 2815 2814 2813 2812 2812 2811 2810 2809 2809 2807 2806 2804 2802 2800 2799 2797
2856 2853 2851 2848 2845 2842 2839 2837 2835 2833 2830 2828 2826 2824 2823 2821 2820 2819 2818 2817 2817 2817 2816 2816 2816 2817 2817 2816 2816 2815 2815 2814 2813 2812 2812 2811 2811 2811 2810 2810 2811 2811 2811 2812 2812 2812 2813 2813 2814 2814 2814 2815 2816 2817 2817 2817 2816 2815 2816 2817 2817 2817 2817 2816 2815 2814 2813 2812 2810 2808 2807 2806 2806 2805 2804 2803 2802 2801 2800 2798 2797 2795 2793 2791 2789
2851 2849 2846 2843 2840 2838 2835 2832 2830 2827 2825 2823 2822 2820 2818 2817 2816 2815 2814 2813 2812 2812 2812 2812 2811 2811 2811 2810 2810 2809 2808 2808 2807 2807 2806 2806 2805 2805 2805 2805 2806 2806 2806 2806 2806 2807 2808 2808 2807 2808 2808 2809 2811 2812 2812 2811 2810 2810 2811 2811 2811 2811 2811 2810 2809 2808 2807 2805 2803 2802 2801 2800 2799 2798 2797 2796 2794 2793 2792 2790 2788 2787 2785 2784 2782
2846 2843 2841 2839 2836 2834 2831 2828 2826 2823 2821 2819 2817 2816 2814 2813 2811 2810 2809 2808 2807 2807 2807 2806 2806 2805 2805 2804 2803 2803 2802 2801 2801 2801 2800 2800 2800 2800 2800 2801 2801 2801 2801 2801 2801 2802 2803 2802 2802 2803 2803 2803 2805 2806 2806 2805 2805 2806 2806 2806 2806 2806 2805 2804 2803 2802 2800 2798 2797 2796 2795 2794 2793 2791 2790 2788 2787 2785 2784 2783 2781 2780 2778 2777 2775
2841 2838 2836 2834 2832 2830 2827 2824 2822 2819 2817 2815 2813 2811 2810 2808 2807 2806 2804 2803 2803 2802 2801 2801 2800 2799 2799 2798 2797 2796 2796 2795 2795 2795 2795 2795 2795 2795 2795 2796 2796 2796 2795 2796 2796 2797 2798 2797 2797 2798 2798 2798 2798 2799 2799 2800 2801 2801 2801 2800 2800 2799 2798 2797 2797 2795 2793 2791 2790 2790 2789 2788 2786 2784 2783 2782 2780 2779 2777 2776 2775 2773 2772 2771 2769